Location: Unspecified
(49.2170°N, 0.0000°E)
Time: 17:45:23
(UTC+00:00)

Transit 2A - Pass Details

Date: 26 June 2019
Orbit: 594 x 965 km, 66.7° (Epoch: 17 July)

Event Time Altitude Azimuth Distance (km) Brightness Sun altitude
Rises 05:07:18 0° 318° (NW) 3,568 9.3 9.0°
Reaches altitude 10° 05:10:51 10° 337° (NNW) 2,565 8.8 9.5°
Maximum altitude 05:14:43 17° 18° (NNE) 2,006 8.9 10.1°
Drops below altitude 10° 05:18:22 10° 59° (ENE) 2,402 11.4 10.7°
Sets 05:21:33 0° 79° (E) 3,252 11.1 11.1°
